Regional Weather Roundup
Issued by NWS

Home | Current Version | Previous Version | Text Only | Print | Product List | Glossary On
Versions: 1 2 3 4 5 6 7 8 9 10 11 12 13 14 15 16 17 18 19 20 21 22 23 24 25 26 27 28 29 30 31 32 33 34 35 36 37 38 39 40 41 42 43 44 45 46 47 48 49 50
000
ASUS43 KDTX 260310
RWRMI
MICHIGAN HOURLY REGIONAL WEATHER ROUNDUP
NATIONAL WEATHER SERVICE DETROIT/PONTIAC MI
1100 PM EDT TUE APR 25 2017

NOTE: "FAIR" INDICATES FEW OR NO CLOUDS BELOW 12,000 FEET WITH NO
SIGNIFICANT WEATHER AND/OR OBSTRUCTION TO VISIBILITY.

MIZ047>049-052>055-059>063-066>070-074>076-081>083-260400-
SOUTHEAST LOWER MICHIGAN

CITY           SKY/WX    TMP DP  RH WIND       PRES   REMARKS
ADRIAN         CLOUDY    55  51  86 SE7       29.72R
ALMA           CLOUDY    65  55  69 SE6       29.70R
ANN ARBOR      CLEAR     58  52  80 E6        29.73R
BAD AXE        CLEAR     54  51  89 SE8G16    29.75F
CARO           PTCLDY    61  54  76 SE12      29.73R
DETROIT CITY   CLEAR     55  52  88 E10       29.75R
DETROIT        MOCLDY    57  51  80 E7        29.74R
FLINT          CLEAR     59  52  77 SE8       29.73R
GROSSE ILE     CLEAR     55  50  82 E5        29.72S
HILLSDALE      CLOUDY    55  50  82 E6        29.70R
HOWELL         PTCLDY    61  52  71 SE9       29.72R

CITY           SKY/WX    TMP DP  RH WIND       PRES   REMARKS
JACKSON        PTCLDY    60  52  74 SE10      29.71R
LAMBERTVILLE   CLEAR     53  51  92 E3        29.71R
LANSING        CLOUDY    64  52  64 SE9       29.70S
LAPEER         FAIR      60  52  76 SE13G18   29.75R
MASON          CLOUDY    62  54  74 SE5       29.71S
MONROE         CLEAR     54  50  88 E12       29.72R
MT. CLEMENS    PTCLDY    55  55 100 E10       29.74R
PONTIAC        CLEAR     57  51  80 E10       29.74R
PORT HOPE        N/A     53  49  86 S13G23    29.75R
PORT HURON     CLEAR     57  50  77 SE6       29.77R
TRI CITIES     PTCLDY    60  54  80 SE10      29.71S
MIDLAND        FAIR      62  53  72 E6        29.70S
TROY           CLEAR     57  50  76 E6        29.77R
SAGINAW HB     CLOUDY    63  50  63 SE12      29.71S
$$
MIZ043>046-050>051-056>058-064>065-071>073-077>080-260400-
SOUTHWEST LOWER MICHIGAN

CITY           SKY/WX    TMP DP  RH WIND       PRES   REMARKS
BATTLE CREEK   CLOUDY    65  53  65 SE12      29.68R
BENTON HARBOR  CLOUDY    65  53  65 E5        29.62R
BIG RAPIDS     CLOUDY    64  53  68 S6        29.68S
COLDWATER      PTCLDY    60  53  76 E6        29.68S
FREMONT        CLOUDY    65  52  61 E3        29.65S
HOLLAND        CLOUDY    65  54  67 E5        29.64R
GRAND RAPIDS   CLOUDY    65  56  72 SE10      29.66R
IONIA          FAIR      64  53  68 SE10      29.68R
KALAMAZOO      CLOUDY    66  53  63 SE8       29.66S
LUDINGTON      CLOUDY    56  54  90 E5        29.64S
MARSHALL       CLOUDY    61  53  73 E8        29.68S
MOUNT PLEASANT MOCLDY    61  52  72 E5        29.70R
MUSKEGON       CLOUDY    66  54  65 E3        29.64S
SOUTH HAVEN    PTCLDY    61  54  78 E5        29.62F
$$
MIZ016>042-260400-
NORTHERN LOWER MICHIGAN

CITY           SKY/WX    TMP DP  RH WIND       PRES   REMARKS
ALPENA         FOG       46  46 100 E6        29.77S VSB 1/2
BEAVER ISLAND  CLOUDY    42  42  98 E9        29.72S
BELLAIRE       MOCLDY    62  51  66 CALM      29.70R
CADILLAC       CLOUDY    61  52  73 E6        29.70S
CHARLEVOIX     CLOUDY    60  48  65 E5        29.72S
FRANKFORT      CLOUDY    58  49  72 CALM      29.66S
GAYLORD        CLOUDY    61  49  64 SE9       29.73R
GRAYLING       CLOUDY    60  52  75 E5        29.74R
HARBOR SPRINGS CLOUDY    51  46  82 E9        29.72S
HOUGHTON LAKE  CLOUDY    60  52  74 E8        29.73R
MANISTEE       CLOUDY    62  54  74 E8        29.64F
OSCODA         MOCLDY    48  46  93 S5        29.75S FOG
PELLSTON       PTCLDY    45  41  86 E5        29.74R
ROGERS CITY    CLOUDY    45  44  95 CALM      29.77S FOG
TRAVERSE CITY  CLOUDY    53  43  68 CALM      29.68R
$$
MIZ007>008-015-260400-
EASTERN UPPER MICHIGAN

CITY           SKY/WX    TMP DP  RH WIND       PRES   REMARKS
KINROSS        FOG       46  46 100 E12       29.77S VSB 1
MACKINAC ISLAN SNOW      42  42 100 E16G28    29.75R VSB 1/4
NEWBERRY       CLOUDY    47  47  97 E8        29.73S
S. S. MARIE    CLOUDY    50  47  89 E8        29.78S
MUNISING         N/A     55  46  71 S9        29.67R
$$
MIZ004>006-011>014-085-260400-
CENTRAL UPPER MICHIGAN

CITY           SKY/WX    TMP DP  RH WIND       PRES   REMARKS
MANISTIQUE     CLOUDY    47  47  97 E8        29.70S
ESCANABA       LGT RAIN  47  43  86 NE8       29.70R
MENOMINEE      CLOUDY    49  45  86 E10       29.66R
SAWYER-GWINN   CLOUDY    53  45  75 SE14G21   29.68R
$$
MIZ001>003-009>011-084-260400-
WESTERN UPPER MICHIGAN

CITY           SKY/WX    TMP DP  RH WIND       PRES   REMARKS
IRON MOUNTAIN  LGT RAIN  53  47  79 SE9       29.66R
HOUGHTON       LGT RAIN  38  33  82 N14       29.69R WCI  30
COPPER HARBOR    N/A     38  33  82 NE13G23   29.76R WCI  30
IRONWOOD       LGT RAIN  34  33  96 N8        29.76R WCI  27
$$

ABBREVIATIONS USED IN REMARKS
   TC - TEMPERATURE IN CELSIUS
  WCI - WIND CHILL INDEX
   HX - HEAT INDEX
  VSB - VISIBILITY





USA.gov is the U.S. government's official web portal to all federal, state and local government web resources and services.